sat.trackr.live / text

‹ back to catalog

STARLINK-34420

NORAD 64483 · 2025-133M

PAYLOAD ACTIVE UNKNOWN

§ Identity

Operator
Country
US
Launch date
2025-06-23
Launch site
AFETR
Launch vehicle
Mass (kg)
RCS (m²)

Purposes: comms

External: N2YO · Heavens-Above · Gunter

§ Orbital elements

Epoch: 2026-09-20T18:54:14.727744Z

Period
93.85 min
Inclination
53.1609°
Eccentricity
0.0000850
Mean motion
15.34394530 rev/d
Perigee alt
462.1 km
Apogee alt
463.3 km
Semi-major
6,840.9 km
B*
1.3522e-4
RAAN
288.1174°
Arg perigee
74.7219°
Mean anomaly
285.3878°
Rev number
7,109

§ Raw data

STARLINK-344201 64483U 25133M   26263.78767046  .00004194  00000+0  13522-3 0  99962 64483  53.1609 288.1174 0000850  74.7219 285.3878 15.34394530 71090

JSON: /api/v1/satellites/64483 · /tle

For live sub-satellite position, see the globe view (requires WebGL).

§ Visibility from observer

Set your observer location to see the next 7 days of passes ≥ 10°. The values pass through the URL so the page stays shareable.

No JS? Fill the form by hand. The geolocation button needs JavaScript.